Lexington Weather

Lexington, Massachusetts, USA

41°F
4/22/2024 8:08am 
  • Lexington Conditions: Clear
  • Temperature: 40.6°F / 4.8°CWarmer 3.2°F than last hour.
  • Dew Point: 27.9°FDecreased 1.2°Fsince last hour.
  • Relative Humidity: 60%Decreased 12.0% since last hour.
  • Wind: Calm, 10-min avg: Calm, gust: 4 mph
  • Barometer: 29.95 in Steady
  • Visibility: 10 miles
  • Rain Today: 0.00 in
  •   

Regional Weather Roundup
for Boston, MA

        
000
ASUS41 KBOX 181210
RWRBOX

REGIONAL WEATHER ROUNDUP
NATIONAL WEATHER SERVICE BOSTON/NORTON MA
800 AM EDT THU APR 18 2024

NOTE:  "FAIR" INDICATES FEW OR NO CLOUDS BELOW 12,000 FEET WITH NO 
SIGNIFICANT WEATHER AND/OR OBSTRUCTIONS TO VISIBILITY.

MAZALL-181300-
EASTERN MASSACHUSETTS
  
CITY           SKY/WX    TMP DP  RH WIND       PRES   REMARKS
BOSTON         CLOUDY    45  37  73 E15       30.18R                  
6HR MIN TEMP:  45; 6HR MAX TEMP:  47;                                

BEVERLY        CLOUDY    45  36  70 E7        30.18R                  
LAWRENCE       CLOUDY    46  36  68 E6        30.20R                  
BEDFORD        CLOUDY    46  32  58 E13       30.16R                  
NORWOOD        CLOUDY    48  35  60 E8        30.16R                  
MARSHFIELD     CLOUDY    45  34  65 E9G16     30.17R                  
PLYMOUTH       CLOUDY    46  35  65 E14G22    30.14R                  
TAUNTON        CLOUDY    48  33  56 E8G18     30.14R                  
NEW BEDFORD    CLOUDY    48  30  49 E12G21    30.12S                  
$$

MAZALL-181300-
CAPE COD AND THE ISLANDS
  
CITY           SKY/WX    TMP DP  RH WIND       PRES   REMARKS
FALMOUTH       CLOUDY    45  32  61 SE12G17   30.14R                  
HYANNIS        CLOUDY    44  32  62 E8        30.14R                  
CHATHAM        CLOUDY    45  36  70 E15G24    30.15F                  
PROVINCETOWN   CLOUDY    46  37  71 E14       30.18R                  
NANTUCKET      CLOUDY    45  36  70 E17G26    30.13R                  
MARTHAS VNYRD  CLOUDY    47  36  65 E14G25    30.12R                  
$$
 
MAZALL-181300-
CENTRAL AND WESTERN MASSACHUSETTS
  
CITY           SKY/WX    TMP DP  RH WIND       PRES   REMARKS
WORCESTER      CLOUDY    44  30  57 E13G22    30.11R                  
6HR MIN TEMP:  44; 6HR MAX TEMP:  45; 6HR PCP: TRACE;                

FITCHBURG      CLOUDY    47  33  58 E7        30.16R                  
ORANGE         CLOUDY    46  32  58 E7        30.15R                  
SPRINGFIELD    CLOUDY    45  40  82 N8        30.10R                  
WESTFIELD      LGT RAIN  44  41  89 N8        30.11S                  
NORTH ADAMS    LGT RAIN  46  35  65 E21G36    30.08R                  
PITTSFIELD     LGT RAIN  41  35  79 E8G18     30.07R                  
$$
 
RIZALL-181300-
RHODE ISLAND
  
CITY           SKY/WX    TMP DP  RH WIND       PRES   REMARKS
PROVIDENCE     CLOUDY    47  32  56 E15G22    30.12R                  
6HR MIN TEMP:  45; 6HR MAX TEMP:  47; 6HR PCP:  0.01;                

NEWPORT        CLOUDY    46  34  62 E14       30.10R                  
BLOCK ISLAND   CLOUDY    42  38  85 E17G26    30.08S                  
SMITHFIELD     CLOUDY    46  31  55 E9G17     30.13R                  
WESTERLY       LGT RAIN  44  38  79 E10       30.08R                  
$$
 
CTZALL-181300-
CONNECTICUT
  
CITY           SKY/WX    TMP DP  RH WIND       PRES   REMARKS
BRADLEY INTL   LGT RAIN  46  41  82 N8        30.11R                  
6HR MIN TEMP:  45; 6HR MAX TEMP:  46; 6HR PCP:  0.06;                

HARTFORD       LGT RAIN  45  40  82 N9        30.10R                  
PLAINVILLE     LGT RAIN  43  42  97 NE9       30.10R                  
BRIDGEPORT     LGT RAIN  45  43  93 E20G30    30.06R FOG              
DANBURY        LGT RAIN  44  41  89 VRB7      30.08R FOG              
GROTON         LGT RAIN  45  41  86 E14       30.06S                  
NEW HAVEN      CLOUDY    46  44  93 NE7       30.07R FOG              
CHESTER        CLOUDY    43  43 100 NE8       30.06R                  
MERIDEN        CLOUDY    44  39  82 N7        30.09R                  
WILLIMANTIC    CLOUDY    44  38  79 NE3       30.10R                  
OXFORD         LGT RAIN  41  40  96 E12G17    30.07R FOG              
$$

MEZ002-015-021-024-NHZ003-005-008-011-012-014-VTZ005-008-181300-
NORTHERN NEW ENGLAND
  
CITY           SKY/WX    TMP DP  RH WIND       PRES   REMARKS
PORTLAND ME    PTSUNNY   44  32  62 NE10      30.23R                  
6HR MIN TEMP:  36; 6HR MAX TEMP:  44;                                

BANGOR ME      MOSUNNY   40  29  64 CALM      30.24R                  
CONCORD NH     CLOUDY    44  35  70 E7        30.19R                  
MANCHESTER NH  CLOUDY    46  36  68 NE6       30.17R                  
NASHUA NH      CLOUDY    45  41  86 E7        30.18R                  
PORTSMOUTH NH  CLOUDY    46  37  71 E8        30.19R                  
JAFFREY NH     CLOUDY    44  32  62 VRB6      30.14R                  
KEENE NH       CLOUDY    45  33  63 NE7       30.16R                  
BURLINGTON VT  CLOUDY    50  34  54 S14       30.06R                  
MT. WASHINGTON MOSUNNY   34  12  40 SE9         N/A  WCI  26          
$$

NYZ052-076-181300-
EASTERN NEW YORK
  
CITY           SKY/WX    TMP DP  RH WIND       PRES   REMARKS
ALBANY         CLOUDY    46  41  82 S9        30.09R                  
6HR MIN TEMP:  46; 6HR MAX TEMP:  49; 6HR PCP:  0.15;                

NEW YORK CITY  DRIZZLE   46  43  89 NE22      30.04R FOG              
6HR MIN TEMP:  45; 6HR MAX TEMP:  48; 6HR PCP:  0.03;                

$$
 
ANZALL-181300-
MARINE OBSERVATIONS
  
STATION/POSITION TIME  TEMP    WIND        PRES    VSBY  WAVE
                       AIR SEA DIR/SP/G                  HT/PER
                 (UTC) (F)     (DEG/KT/KT) (MB)    (MI)  (FT/S)
BOSTON BUOY      1140   44      90/ 12/ 14 1021.6R
BUZZARDS BAY     1100   46      80/ 20/ 21 1019.3R
NANTUCKET SOUND  1150   45 47   80/ 19/ 23 1019.9R         3/ 4
MASS BAY-STELLWA 1004   44 45   80/ 12/ 14 1021.3R  1 7/8  2/ 3
ISLE OF SHOALS   1100   44      80/ 13/ 14 1021.4R
S OF BLOCK IS    1156      45                N/A           5/ 5
$$

......................KEY.........................
  SKY/WX - SKY CONDITION/PRESENT WEATHER
  TMP    - TEMPERATURE IN FAHRENHEIT
  DWPT   - DEWPOINT IN FAHRENHEIT
  RH     - RELATIVE HUMIDITY IN PERCENT
  WIND   - DIRECTION AND SPEED IN MPH
  PRES   - MEAN SEA LEVEL PRESSURE IN INCHES OF HG
  WCI    - WIND CHILL INDEX
  VSB    - VISIBILITY IN MILES
  HX     - HEAT INDEX
  TC     - TEMPERATURE IN CELSIUS
  VRB    - VARIABLE WIND DIRECTION
  N/A    - NOT AVAILABLE
  
      

Other recent Regional Weather Roundups

Mon Apr 22, 7:10am EDT

Mon Apr 22, 6:10am EDT

Mon Apr 22, 5:10am EDT

Mon Apr 22, 4:10am EDT

Mon Apr 22, 3:10am EDT

Mon Apr 22, 2:10am EDT

Mon Apr 22, 1:10am EDT

Mon Apr 22, 12:10am EDT

Sun Apr 21, 11:10pm EDT

Sun Apr 21, 10:10pm EDT

Sun Apr 21, 9:10pm EDT

Sun Apr 21, 8:10pm EDT

Sun Apr 21, 7:10pm EDT

Sun Apr 21, 6:10pm EDT

Sun Apr 21, 5:10pm EDT

Sun Apr 21, 4:10pm EDT

Sun Apr 21, 3:10pm EDT

Sun Apr 21, 2:10pm EDT

Sun Apr 21, 1:10pm EDT

Sun Apr 21, 12:10pm EDT

Sun Apr 21, 11:10am EDT

Sun Apr 21, 10:10am EDT

Sun Apr 21, 9:10am EDT

Sun Apr 21, 8:10am EDT

Sun Apr 21, 7:10am EDT

Sun Apr 21, 6:10am EDT

Sun Apr 21, 5:10am EDT

Sun Apr 21, 4:10am EDT

Sun Apr 21, 3:10am EDT

Sun Apr 21, 2:10am EDT

Sun Apr 21, 1:10am EDT

Sun Apr 21, 12:10am EDT

Sat Apr 20, 11:10pm EDT

Sat Apr 20, 10:10pm EDT

Sat Apr 20, 9:10pm EDT

Sat Apr 20, 8:10pm EDT

Sat Apr 20, 7:10pm EDT

Sat Apr 20, 6:10pm EDT

Sat Apr 20, 5:10pm EDT

Sat Apr 20, 4:10pm EDT

Sat Apr 20, 3:10pm EDT

Sat Apr 20, 2:10pm EDT

Sat Apr 20, 1:10pm EDT

Sat Apr 20, 12:10pm EDT

Sat Apr 20, 11:10am EDT

Sat Apr 20, 10:10am EDT

Sat Apr 20, 9:10am EDT

Sat Apr 20, 8:10am EDT

Sat Apr 20, 7:10am EDT

Sat Apr 20, 6:10am EDT

Sat Apr 20, 5:10am EDT

Sat Apr 20, 4:10am EDT

Sat Apr 20, 3:10am EDT

Sat Apr 20, 2:10am EDT

Sat Apr 20, 1:10am EDT

Sat Apr 20, 12:10am EDT

Fri Apr 19, 11:10pm EDT

Fri Apr 19, 10:10pm EDT

Fri Apr 19, 9:10pm EDT

Fri Apr 19, 8:10pm EDT

Fri Apr 19, 7:10pm EDT

Fri Apr 19, 6:10pm EDT

Fri Apr 19, 5:10pm EDT

Fri Apr 19, 4:10pm EDT

Fri Apr 19, 3:10pm EDT

Fri Apr 19, 2:10pm EDT

Fri Apr 19, 1:10pm EDT

Fri Apr 19, 12:10pm EDT

Fri Apr 19, 11:10am EDT

Fri Apr 19, 10:10am EDT

Fri Apr 19, 9:10am EDT

Fri Apr 19, 8:10am EDT

Fri Apr 19, 7:10am EDT

Fri Apr 19, 6:10am EDT

Fri Apr 19, 5:10am EDT

Fri Apr 19, 4:10am EDT

Fri Apr 19, 3:10am EDT

Fri Apr 19, 2:10am EDT

Fri Apr 19, 1:10am EDT

Fri Apr 19, 12:10am EDT

Thu Apr 18, 11:10pm EDT

Thu Apr 18, 10:10pm EDT

Thu Apr 18, 9:10pm EDT

Thu Apr 18, 8:10pm EDT

Thu Apr 18, 7:10pm EDT

Thu Apr 18, 6:10pm EDT

Thu Apr 18, 5:10pm EDT

Thu Apr 18, 4:10pm EDT

Thu Apr 18, 3:10pm EDT

Thu Apr 18, 2:10pm EDT

Thu Apr 18, 1:10pm EDT

Thu Apr 18, 12:10pm EDT

Thu Apr 18, 11:10am EDT

Thu Apr 18, 10:10am EDT

Thu Apr 18, 9:10am EDT

Thu Apr 18, 7:10am EDT

Thu Apr 18, 6:10am EDT

Thu Apr 18, 5:10am EDT

Thu Apr 18, 4:10am EDT

Thu Apr 18, 3:10am EDT

Thu Apr 18, 2:10am EDT

Thu Apr 18, 1:10am EDT

Thu Apr 18, 12:10am EDT

Wed Apr 17, 11:10pm EDT

Wed Apr 17, 10:10pm EDT

Wed Apr 17, 9:10pm EDT

Wed Apr 17, 8:10pm EDT

Wed Apr 17, 7:10pm EDT

Wed Apr 17, 6:10pm EDT

Wed Apr 17, 5:10pm EDT

Wed Apr 17, 4:10pm EDT

Wed Apr 17, 3:10pm EDT

Wed Apr 17, 2:10pm EDT

Wed Apr 17, 1:10pm EDT

Wed Apr 17, 12:10pm EDT

Wed Apr 17, 11:10am EDT

Wed Apr 17, 10:10am EDT

Wed Apr 17, 9:10am EDT

Wed Apr 17, 8:10am EDT

Wed Apr 17, 7:10am EDT

Wed Apr 17, 6:10am EDT

Wed Apr 17, 5:10am EDT

Wed Apr 17, 4:10am EDT

Wed Apr 17, 3:10am EDT

Wed Apr 17, 2:10am EDT

Wed Apr 17, 1:10am EDT

Wed Apr 17, 12:10am EDT

Tue Apr 16, 11:10pm EDT

Tue Apr 16, 10:10pm EDT

Tue Apr 16, 9:10pm EDT

Tue Apr 16, 8:10pm EDT

Tue Apr 16, 7:10pm EDT

Tue Apr 16, 6:10pm EDT

Tue Apr 16, 5:10pm EDT

Tue Apr 16, 4:10pm EDT

Tue Apr 16, 3:10pm EDT

Tue Apr 16, 2:10pm EDT

Tue Apr 16, 1:10pm EDT

Tue Apr 16, 12:10pm EDT

Tue Apr 16, 11:10am EDT

Tue Apr 16, 10:10am EDT

Tue Apr 16, 9:10am EDT

Tue Apr 16, 8:10am EDT

Tue Apr 16, 7:10am EDT

Tue Apr 16, 6:10am EDT

Tue Apr 16, 5:10am EDT

Tue Apr 16, 4:10am EDT

Tue Apr 16, 3:10am EDT

Tue Apr 16, 2:10am EDT

Tue Apr 16, 1:10am EDT

Tue Apr 16, 12:10am EDT

Mon Apr 15, 11:10pm EDT

Mon Apr 15, 10:10pm EDT

Mon Apr 15, 9:10pm EDT

Mon Apr 15, 8:10pm EDT

Mon Apr 15, 7:10pm EDT

Mon Apr 15, 6:10pm EDT

Mon Apr 15, 5:10pm EDT

Mon Apr 15, 4:10pm EDT

Mon Apr 15, 3:10pm EDT

Mon Apr 15, 2:10pm EDT

Mon Apr 15, 1:10pm EDT

Mon Apr 15, 12:10pm EDT

Mon Apr 15, 11:10am EDT

Mon Apr 15, 10:10am EDT

Mon Apr 15, 9:10am EDT

Mon Apr 15, 8:10am EDT